Cloud_Cover
37 20 5 0 0 0 0 1 5 4 5 2 1 12 0 2 7 12 11 0 20 79 100 23 0 0 1 2 7 1 0 0 0 0 0 0 0 2 4 2 3 0 0
40 29 5 5 4 0 2 0 0 4 1 0 3 34 0 0 0 0 4 2 77 100 97 0 0 0 0 4 0 0 0 0 0 0 0 0 0 2 2 0 0 0 0
23 8 5 14 5 3 0 0 0 3 5 0 28 5 0 0 0 3 36 100 100 4 9 2 0 0 0 5 3 8 0 0 0 0 4 22 84 59 8 14 37 4 85
4 6 61 90 16 5 13 5 0 0 1 20 5 5 10 1 4 5 15 100 74 100 23 3 0 0 0 0 0 0 0 0 0 0 5 5 8 3 3 0 67 30 44
5 4 6 9 22 5 8 0 0 0 0 8 5 5 6 2 5 5 0 81 98 100 30 0 0 0 0 0 0 0 0 0 0 2 3 5 5 5 5 0 0 0 0
8 5 4 5 5 21 5 5 0 0 1 14 5 5 9 1 4 5 4 3 65 55 0 0 0 0 0 5 0 0 5 5 5 5 5 5 5 5 1 0 0 0 0
7 5 6 5 5 5 5 4 0 0 0 18 5 16 20 5 5 0 0 0 0 2 0 0 0 0 0 2 0 0 5 5 5 5 5 5 5 2 0 0 0 0 0
34 37 20 5 5 5 5 5 2 0 0 0 2 2 10 0 0 0 0 0 0 0 0 0 0 0 0 0 0 2 5 5 5 5 5 0 0 0 0 0 0 0 0
20 40 34 27 5 5 5 5 5 5 0 0 0 4 0 0 0 0 0 0 0 0 0 0 0 0 0 0 0 0 0 0 0 0 0 0 0 0 0 0 0 0 0
100 100 62 40 5 5 5 5 5 5 2 0 0 0 0 0 0 0 0 0 0 0 0 0 0 0 0 0 0 0 0 0 0 0 0 0 0 0 0 0 0 0 0
59 100 100 82 5 5 5 6 5 5 5 5 3 0 0 0 1 5 0 0 0 0 0 0 0 0 0 0 0 0 0 0 0 0 0 0 0 0 0 0 0 0 0
99 100 100 71 5 5 15 55 5 5 5 1 4 4 0 0 5 3 0 0 4 0 0 0 0 0 0 0 0 0 0 0 0 0 0 0 0 0 0 0 0 0 0
100 95 100 77 59 5 6 21 5 5 5 5 5 5 5 5 5 5 14 2 5 0 2 0 0 0 0 0 2 3 1 2 2 4 0 0 0 4 5 5 5 0 0
100 97 100 100 100 81 30 40 5 5 5 5 8 12 5 5 5 6 20 6 27 3 6 5 4 0 0 0 0 0 5 5 5 5 5 5 5 25 50 5 21 3 1
88 100 100 100 100 94 99 87 59 23 24 26 8 5 5 5 5 5 5 22 5 5 5 5 3 4 0 5 5 5 5 5 5 5 4 5 42 90 75 6 6 11 38
100 80 100 100 100 100 100 100 100 100 98 97 68 73 86 56 19 5 5 5 5 5 5 5 5 4 0 3 5 9 6 5 5 5 5 5 5 30 100 17 5 5 15
90 100 100 100 100 100 100 100 100 100 100 100 100 78 79 79 97 99 76 6 5 24 5 5 5 5 56 57 70 86 56 26 13 5 12 66 80 100 27 5 5 5 80
100 100 100 100 100 100 100 100 100 100 100 100 100 99 100 100 100 100 100 100 83 98 69 52 72 50 65 100 100 100 100 79 100 100 100 99 100 99 75 61 50 16 65
100 100 100 100 100 100 100 100 100 100 100 100 100 100 100 100 100 100 100 100 100 100 100 100 100 100 100 100 100 100 100 100 100 100 100 100 100 83 18 100 100 83 74
100 100 100 100 100 100 100 100 88 100 100 100 100 100 100 100 100 100 100 100 100 100 100 100 100 100 100 100 100 100 100 98 51 100 100 100 98 54 81 100 80 100 100
100 100 100 100 100 100 100 100 92 92 89 100 100 100 100 100 100 100 100 100 100 100 100 100 100 100 100 100 100 100 98 100 100 100 100 100 100 90 10 17 67 100 100
100 100 100 100 100 100 100 100 100 100 98 100 100 100 100 100 100 100 100 100 100 100 100 100 100 100 100 100 100 99 98 100 100 100 100 29 92 100 100 100 94 97 68
83 100 100 100 100 100 100 100 96 100 100 100 100 100 100 100 100 100 100 100 100 100 100 100 100 100 100 100 100 69 93 100 100 100 100 100 97 100 100 100 100 100 100
100 100 100 100 100 100 100 100 100 100 100 100 100 100 100 100 100 100 100 100 100 100 100 100 100 100 99 76 81 100 99 100 100 99 100 100 100 100 100 100 100 100 100
100 100 100 100 100 100 100 100 100 100 100 100 100 100 100 100 100 100 100 100 100 99 99 100 100 100 100 100 100 100 100 91 94 100 100 100 100 98 100 100 100 100 100
100 100 100 100 100 100 100 100 100 100 100 100 100 100 100 100 100 100 100 100 100 100 100 100 100 100 100 100 100 100 100 100 100 100 100 100 100 100 100 100 100 100 100